User: anonymous   Login
Location: Alfortville
(48.8058°N, 2.4204°E)
Time: 23:55:58
(UTC+00:00)
Language:

Meteor 1-18 Rocket - Orbit

View from above orbital plane
View from above orbital plane
View from above satellite
View from above satellite

Ground track
Ground track

The orbit data is extracted from the following two-line orbital elements,

1 07364U 74052B   22222.17454375 -.00000005  00000-0 -10178-4 0  9992
2 07364  81.2329 127.5927 0048473 262.0236  97.5430 14.06077647465316
Epoch (UTC): 10 August 2022 04:11:20
Eccentricity: 0.0048473
inclination: 81.2329°
perigee height: 837 km
apogee height: 908 km
right ascension of ascending node: 127.5927°
argument of perigee: 262.0236°
revolutions per day: 14.06077647
mean anomaly at epoch: 97.5430°
orbit number at epoch: 46531

The dashed part of the orbit path shows where the satellite is in the earth's shadow,  

DLR